Orsk Airport
UWOR : now visible

Airfield :











YOU CAN JOIN US ON...

 
LOGIN :

Register | Disclaimer

   EN    FR    IT 

 









Legend :    VFR   Marginal VFR   IFR   Intensive IFR   Very Intensive IFR
Visi :
Ceiling :
>= 8 km
>= 3000ft
5 to 8 km
1000 to 3000 ft
1500m to 5 km
500 to 1000 ft
800 to 1500m
200 to 500 ft
< 800m
< 200 ft
Symbols :   Thunderstorms  Fog  Heavy snow  Heavy precipitations  Wind > 20 kt






- Airport Elevation : 909 ft
- IATA code : OSW


UWOR - Orsk

CURRENT METAR :
  • 050700Z 12007MPS CAVOK 21/04 Q1023 R07/CLRD65 NOSIG RMK QFE743/0990

EXPIRED METARs :
  • 050600Z 10006MPS CAVOK 20/05 Q1023 R07/CLRD65 NOSIG RMK QFE743/0990
  • 050500Z 12007MPS CAVOK 19/06 Q1023 R07/CLRD65 NOSIG RMK QFE743/0990

TAF TAF UWOR
Valid from the 05 at 06:00 until the 05 at 15:00 UTC


050454Z 0506/0515 12008G14MPS 9999 BKN030CB TX25/0512Z TN18/0515Z
UWOR FIR / Europe



MET'MAP, your aeronautical weather chart ! - Copyright ORBIFLY December 2007 - Disclaimer

ORBIFLY MET'MAP TEAM :

Programming & Development : Alexandra Zaïnal
Concept & original design : Baudouin d'Aumeries
Assistance for programming : Marc-Olivier Méhu
Technical & hardware support : Manuel Goepfert

Contact : metmap@orbifly.com




SOURCES & CREDITS :

   NOAA       Earth
Advisory